Regional Weather Roundup
Issued by NWS

Home | Current Version | Previous Version | Graphics & Text | Print | Product List | Glossary On
Versions: 1 2 3 4 5 6 7 8 9 10 11 12 13 14 15 16 17 18 19 20 21 22 23 24 25 26 27 28
000
ASUS45 KPSR 200110
RWRAZ

ARIZONA HOURLY REGIONAL WEATHER ROUNDUP
NATIONAL WEATHER SERVICE PHOENIX AZ
600 PM MST THU APR 19 2018

NOTE: FAIR INDICATES FEW OR NO CLOUDS BELOW 12,000 FEET WITH NO
SIGNIFICANT WEATHER AND/OR OBSTRUCTIONS TO VISIBILITY.

AZZ001>003-036-200200-
NORTHWEST ARIZONA

CITY           SKY/WX    TMP DP  RH WIND       PRES   REMARKS
BULLHEAD CITY  PTSUNNY   72  25  17 W17G26    29.78R
KINGMAN        PTSUNNY   58  19  22 SW26G33   29.81F
$$

AZZ004>008-015-016-018-200200-
NORTH CENTRAL ARIZONA

CITY           SKY/WX    TMP DP  RH WIND       PRES   REMARKS
WILLIAMS       SUNNY     46   9  21 SW22G33   29.82S
PRESCOTT       SUNNY     54  15  21 SW23G30   29.84R
FLAGSTAFF      SUNNY     48   8  19 SW37G47   29.81F
PAYSON         SUNNY     59   9  13 SW13G22   29.84F
PAGE           MOSUNNY   64  11  12 W17G29    29.67R
$$

AZZ009>014-017-200200-
NORTHEAST ARIZONA

CITY           SKY/WX    TMP DP  RH WIND       PRES   REMARKS
WINSLOW        SUNNY     67  11  11 S35G49    29.75R
SAINT JOHNS    MOCLDY    70  -1   6 SW22G41   29.78S
WINDOW ROCK    CLOUDY    67   0   7 S30G47    29.81F
SHOW LOW       PTSUNNY   63   5  10 SW22G36   29.86S
$$

AZZ540-542>544-546-548-200200-
GREATER PHOENIX AREA

CITY           SKY/WX    TMP DP  RH WIND       PRES   REMARKS
PHOENIX        PTSUNNY   74  24  15 SW25G33   29.75F
BUCKEYE        SUNNY     72  21  15 SW25G33   29.79R
GLENDALE       MOSUNNY   75  25  15 S17G29    29.79S
LUKE AFB       SUNNY     74  24  15 SW26      29.75F
DEER VALLEY    SUNNY     72  18  13 SW17      29.77R
SCOTTSDALE     SUNNY     73  22  14 W22G29    29.79R
MESA-FALCON    MOSUNNY   73  19  13 SW17G25   29.79F
MESA-GATEWAY   PTSUNNY   73  19  13 W18G25    29.80
CHANDLER       PTSUNNY   75  18  11 SW21      29.78F
$$

AZZ539-553-200200-
SOUTHWEST MARICOPA COUNTY AND PINAL COUNTY

CITY           SKY/WX    TMP DP  RH WIND       PRES   REMARKS
CASA GRANDE    PTSUNNY   72  21  14 W22G31    29.79S
GILA BEND      SUNNY     73  24  16 W23       29.81R
$$

AZZ503-504-507>509-200200-
SOUTHEAST ARIZONA

CITY           SKY/WX    TMP DP  RH WIND       PRES   REMARKS
TUCSON         MOSUNNY   82   0   4 SW20G37   29.82S
DAVIS-MONTHAN  SUNNY     83   5   5 SW17G33   29.80F
RYAN FIELD     SUNNY     82  -4   3 SW17G26   29.82S
NOGALES        SUNNY     77   8   7 SW23G31   29.90F
SIERRA VISTA   SUNNY     75   4   6 SW30G37   29.91S
DOUGLAS        CLEAR     80   1   5 SW26      29.89R
SAFFORD        PTCLDY    84  -2   3 SW20G29   29.74S
$$

AZZ532-200200-
SOUTHWEST ARIZONA

CITY           SKY/WX    TMP DP  RH WIND       PRES   REMARKS
YUMA           SUNNY     70  35  27 W15       29.86F
$$

CAZ041-043-047-048-061-525>527-560>570-200200-
SOUTHERN CALIFORNIA

CITY           SKY/WX    TMP DP  RH WIND       PRES   REMARKS
DOWNTOWN L.A.  MOSUNNY   61  47  59 MISG      30.01R
L.A. AIRPORT   MOSUNNY   60  46  59 SW22G29   30.00F
SAN DIEGO      MOSUNNY   60  46  59 W10       30.06F
BURBANK        PTSUNNY   61  43  51 S9        29.98S
ONTARIO        PTSUNNY   60  39  45 SW12      29.99S
RIVERSIDE      PTSUNNY   60  39  45 W14       29.99S
PALM SPRINGS   MOSUNNY   70  33  25 N14G25    29.85F
EL CENTRO NAS  MOSUNNY   71  25  17 W20       29.90S
IMPERIAL       SUNNY     70  28  21 W20G31    29.87S
BLYTHE         SUNNY     72  29  20 SW18      29.82S
NEEDLES        PTSUNNY   72  28  19 NW22G31   29.80R
$$

NVZ020-UTZ003-200200-
SOUTHERN NEVADA-UTAH

CITY           SKY/WX    TMP DP  RH WIND       PRES   REMARKS
LAS VEGAS      PTSUNNY   63  28  26 SE5       29.77S
SALT LAKE CITY CLOUDY    63  19  18 NW17G25   29.72S
$$

NMZ009-TXZ055-200200-
NEW MEXICO-WEST TEXAS

CITY           SKY/WX    TMP DP  RH WIND       PRES   REMARKS
ALBUQUERQUE    MOCLDY    70  24  17 SE30G36   29.94F
EL PASO        MOCLDY    80  40  23 SE18G28   29.92S
$$


........................KEY........................
SKY/WX - SKY CONDITION/WEATHER
TMP    - TEMPERATURE IN FAHRENHEIT
DP     - DEW POINT IN FAHRENHEIT
RH     - RELATIVE HUMIDITY IN PERCENT
WIND   - DIRECTION AND SPEED IN MILES PER HOUR (MPH)
VRB    - VARIABLE WIND DIRECTION
PRES   - MEAN SEA LEVEL PRESSURE IN INCHES OF MERCURY
         F - FALLING PRESSURE   R - RISING PRESSURE
         S - STEADY PRESSURE
VSB    - VISIBILITY IN MILES
HX     - HEAT INDEX IN FAHRENHEIT
WCI    - WIND CHILL INDEX IN FAHRENHEIT
TC     - TEMPERATURE IN CELSIUS WHICH IS ALSO KNOWN AS
         TEMPERATURE IN CENTIGRADE
AFB    - AIR FORCE BASE
         LUKE AFB IS LUKE AIR FORCE BASE
         DAVIS-MONTHAN IS DAVIS-MONTHAN AIR FORCE BASE
NAS    - NAVAL AIR STATION
         EL CENTRO NAS IS EL CENTRO NAVAL AIR STATION
N/A    - NOT AVAILABLE





USA.gov is the U.S. government's official web portal to all federal, state and local government web resources and services.